Location: Tel Aviv
(32.0670°N, 34.7670°E)
Time: 20:18:44
(UTC+03:00)

Transit 4A - Visible Passes

Search period start: 25 July 2024 00:00
Search period end: 04 August 2024 00:00
Orbit: 869 x 973 km, 66.8° (Epoch: 24 July)

Date Brightness Start Highest point End Pass type
(mag) Time Alt. Az. Time Alt. Az. Time Alt. Az.
25 Jul 9.3 00:55:46 10° NNW 00:58:53 33° NNW 00:58:53 33° NNW visible
25 Jul 9.8 23:19:54 10° N 23:23:50 19° NE 23:23:50 19° NE visible
26 Jul 9.6 01:04:50 10° NNW 01:07:18 25° NW 01:07:18 25° NW visible
26 Jul 9.4 23:28:13 10° N 23:32:18 27° NE 23:32:18 27° NE visible
27 Jul 10.0 01:14:06 10° NW 01:15:45 18° NW 01:15:45 18° NW visible
27 Jul 9.2 23:36:48 10° N 23:40:47 34° NNE 23:40:47 34° NNE visible
28 Jul 10.3 01:23:42 10° NW 01:24:15 12° WNW 01:24:15 12° WNW visible
28 Jul 9.1 23:45:34 10° NNW 23:49:20 38° N 23:49:20 38° N visible
29 Jul 9.9 22:10:27 10° NNE 22:13:40 14° NE 22:14:27 14° ENE visible
29 Jul 9.2 23:54:30 10° NNW 23:57:55 36° NNW 23:57:55 36° NNW visible
30 Jul 9.5 22:18:24 10° N 22:23:00 22° NE 22:23:04 22° NE visible
31 Jul 9.5 00:03:38 10° NW 00:06:33 29° NW 00:06:33 29° NW visible
31 Jul 9.0 22:26:49 10° N 22:31:44 32° NE 22:31:44 32° NE visible
01 Aug 9.9 00:12:59 10° NW 00:15:13 21° WNW 00:15:13 21° WNW visible
01 Aug 8.6 22:35:27 10° NNW 22:40:27 45° NE 22:40:27 45° NE visible
02 Aug 10.2 00:22:42 10° WNW 00:23:56 14° WNW 00:23:56 14° WNW visible
02 Aug 10.0 21:01:48 10° NE 21:03:08 11° NE 21:04:28 10° ENE visible
02 Aug 8.3 22:44:17 10° NNW 22:49:12 57° N 22:49:12 57° N visible
03 Aug 9.7 21:08:47 10° NNE 21:12:32 16° NE 21:14:30 14° ENE visible
03 Aug 8.5 22:53:16 10° NNW 22:57:59 54° NW 22:57:59 54° NW visible
